Location: Detroit
(42.3310°N, 83.0460°W)
Time: 03:53:02
(UTC-05:00)

Explorer 11/Cluster Stage 4 - Visible Passes

Search period start: 11 December 2023 00:00
Search period end: 21 December 2023 00:00
Orbit: 465 x 1227 km, 28.8° (Epoch: 10 December)

Date Brightness Start Highest point End Pass type
(mag) Time Alt. Az. Time Alt. Az. Time Alt. Az.
17 Dec 10.0 07:15:08 10° SSE 07:16:21 10° SSE 07:17:35 10° SE visible
18 Dec 9.8 06:58:43 10° SSE 07:00:09 11° SSE 07:01:39 10° SE visible
19 Dec 9.7 06:42:28 10° SSE 06:43:59 11° SSE 06:45:34 10° SE visible
20 Dec 9.5 06:26:19 10° SSE 06:27:50 11° SSE 06:29:25 10° SE visible
